Terminal Aerodrome Forecast
Issued by NWS

Home | Current Version | Previous Version | Text Only | Print | Product List | Glossary On
Versions: 1 2 3 4 5 6 7 8 9 10 11 12 13 14 15 16 17 18 19 20 21 22
000
FTUS43 KSGF 172100 AAA
TAFJLN
TAF AMD
KJLN 172114Z 1721/1818 13005KT P6SM FEW045 OVC070
      TEMPO 1721/1724 5SM -RAPL BR OVC010
     FM180000 13010KT 3SM -SN BR BKN007 OVC015
      TEMPO 1801/1805 1SM -SN BR OVC005
     FM181000 14008KT 3SM -DZ BR OVC005=

USA.gov is the U.S. government's official web portal to all federal, state and local government web resources and services.